Terminal Aerodrome Forecast
Issued by NWS Blacksburg, VA

Current Version | Previous Version | Graphics & Text | Print | Product List | Glossary On
Versions: 1 2 3 4 5 6 7 8 9 10 11 12 13 14 15 16 17 18 19 20 21 22 23 24 25 26 27 28 29 30 31 32 33 34 35 36 37 38 39 40 41 42 43 44 45 46
000
FTUS41 KRNK 161408 AAA
TAFBLF
TAF AMD
KBLF 161408Z 1614/1712 28006KT 6SM BR OVC005
     FM161700 31006KT P6SM BKN015
     FM162000 30007KT P6SM BKN035
     FM170100 32003KT P6SM SCT035 BKN050
     FM170900 09004KT 2SM BR BKN025=

USA.gov is the U.S. government's official web portal to all federal, state and local government web resources and services.